Home > Weather > Namur > Past weeks

Flag for Belgium Weather for the Past 2 Weeks in Namur, Belgium

Now
39 °F

Clear.


Feels Like: 39 °F
Forecast: 41 / 64 °F
Wind: 2 mph from Southeast

Location: Charleroi / Gosselies

Current Time: May 4, 2016 at 5:00:50 AM

Latest Report: May 4, 2016 at 4:20 AM


Visibility: 10 mi

Pressure: 30.39 "Hg

Humidity: 87%

Dew Point: 36 °F

Location of NamurLocation

Historic Weather in Namur — Graph

°F

Namur Temperature Yesterday

Maximum temperature yesterday: 55 °F (at 2:20 PM)
Minimum temperature yesterday: 43 °F (at 11:50 PM)
Average temperature yesterday: 51 °F

High & Low Weather Summary for the Past Weeks

 TemperatureHumidityPressure
High66 °F (Apr 21, 3:50 PM)100% (Apr 25, 5:50 AM)30.42 "Hg (Apr 25, 5:50 AM)
Low32 °F (Apr 27, 7:50 AM)35% (Apr 21, 4:20 PM)29.62 "Hg (Apr 26, 5:50 AM)
Average45 °F72%30.07 "Hg
* Reported Apr 19 3:20 AM — May 4 3:50 AM, Namur, Weather by CustomWeather, © 2016

Note: Actual official high and low records may vary slightly from our data, if they occured in-between our weather recording intervals... More about our weather records

Advertising

Namur Weather History for the Previous 24 Hours

Scroll right to see more
 ConditionsComfort  
Time TempWeatherWind HumidityBarometerVisibility
3:50 AM
Wed, May 4
39 °FClear.1 mph87%30.39 "Hg10 mi
3:20 AM39 °FClear.No wind87%30.39 "Hg10 mi
2:50 AM41 °FClear.1 mph81%30.39 "Hg10 mi
2:20 AM41 °FClear.1 mph81%30.39 "Hg10 mi
1:50 AM41 °FClear.1 mph81%30.39 "Hg10 mi
12:50 AM43 °FClear.3 mph76%30.36 "Hg10 mi
11:50 PM
Tue, May 3
43 °FClear.2 mph71%30.36 "Hg10 mi
10:50 PM46 °FPassing clouds.3 mph62%30.36 "HgN/A
10:20 PM48 °FPassing clouds.3 mph58%30.36 "HgN/A
9:50 PM48 °FPassing clouds.5 mph58%30.36 "HgN/A
9:20 PM50 °FPassing clouds.6 mph50%30.33 "HgN/A
8:50 PM52 °FPassing clouds.6 mph44%30.33 "HgN/A
8:20 PM54 °FPassing clouds.7 mph41%30.33 "HgN/A
7:50 PM54 °FPassing clouds.8 mph41%30.30 "HgN/A
7:20 PM55 °FPassing clouds.8 mph41%30.30 "HgN/A
6:50 PM55 °FPassing clouds.7 mph41%30.30 "HgN/A
6:20 PM55 °FPassing clouds.7 mph41%30.30 "HgN/A
5:50 PM54 °FPassing clouds.8 mph44%30.30 "HgN/A
5:20 PM55 °FPassing clouds.9 mph41%30.30 "HgN/A
4:50 PM55 °FPassing clouds.8 mph44%30.30 "HgN/A
4:20 PM55 °FPassing clouds.12 mph44%30.27 "HgN/A
3:50 PM55 °FPassing clouds.7 mph44%30.30 "HgN/A
3:20 PM55 °FPassing clouds.9 mph44%30.30 "HgN/A
2:50 PM54 °FPassing clouds.9 mph47%30.27 "HgN/A
2:20 PM55 °FPassing clouds.9 mph47%30.27 "HgN/A
1:20 PM54 °FPassing clouds.9 mph51%30.27 "HgN/A
12:50 PM54 °FScattered clouds.9 mph54%30.27 "HgN/A
12:20 PM54 °FScattered clouds.10 mph54%30.27 "HgN/A
11:50 AM52 °FScattered clouds.9 mph58%30.24 "HgN/A
10:50 AM50 °FScattered clouds.7 mph67%30.24 "HgN/A
10:20 AM50 °FScattered clouds.9 mph71%30.24 "HgN/A
9:50 AM48 °FScattered clouds.8 mph82%30.21 "HgN/A
9:20 AM48 °FPartly sunny.8 mph82%30.21 "HgN/A
8:50 AM46 °FPartly sunny.8 mph87%30.21 "HgN/A
8:20 AM46 °FPartly sunny.7 mph87%30.18 "HgN/A
7:50 AM46 °FPartly sunny.7 mph87%30.18 "HgN/A
7:20 AM46 °FPartly sunny.6 mph87%30.18 "HgN/A
6:50 AM46 °FPassing clouds.8 mph87%30.15 "HgN/A
6:20 AM46 °FPassing clouds.6 mph93%30.15 "HgN/A
5:50 AM46 °FPartly cloudy.7 mph93%30.15 "HgN/A
Weather by CustomWeather, © 2016

See weather overviewHow to use our weather pages